Time,TemperatureF,DewpointF,PressureIn,WindDirection,WindDirectionDegrees,WindSpeedMPH,WindSpeedGustMPH,Humidity,HourlyPrecipIn,Conditions,Clouds,dailyrainin,SoftwareType,DateUTC
2013-01-06 16:03:00,80.0,70.0,30.05,SSE,160,12.0,18.0,71,-99.99,,,-99.99,,2013-01-06 21:03:00,
2013-01-06 16:12:00,80.0,70.0,30.05,SSE,158,10.0,15.0,72,-99.99,,,-99.99,,2013-01-06 21:12:00,
2013-01-06 16:33:00,79.0,70.0,30.05,SSE,156,10.0,16.0,74,-99.99,,,-99.99,,2013-01-06 21:33:00,
2013-01-06 16:43:00,79.0,70.0,30.05,SSE,157,12.0,17.0,72,-99.99,,,-99.99,,2013-01-06 21:43:00,
2013-01-06 16:53:00,79.0,70.0,30.05,SSE,158,10.0,16.0,73,-99.99,,,-99.99,,2013-01-06 21:53:00,
2013-01-06 17:02:00,79.0,70.0,30.05,SSE,158,10.0,16.0,73,-99.99,,,-99.99,,2013-01-06 22:02:00,
2013-01-06 17:12:00,78.0,70.0,30.04,SSE,160,9.0,14.0,74,-99.99,,,-99.99,,2013-01-06 22:12:00,
2013-01-06 17:22:00,78.0,70.0,30.04,SSE,160,9.0,14.0,74,-99.99,,,-99.99,,2013-01-06 22:22:00,
2013-01-06 17:33:00,78.0,70.0,30.05,SSE,158,10.0,16.0,76,-99.99,,,-99.99,,2013-01-06 22:33:00,
2013-01-06 17:43:00,77.0,70.0,30.05,SSE,157,9.0,13.0,77,-99.99,,,-99.99,,2013-01-06 22:43:00,
2013-01-06 17:53:00,76.0,70.0,30.05,SSE,148,8.0,13.0,80,-99.99,,,-99.99,,2013-01-06 22:53:00,
2013-01-06 18:02:00,76.0,70.0,30.05,SSE,148,8.0,13.0,80,-99.99,,,-99.99,,2013-01-06 23:02:00,
2013-01-06 18:13:00,75.0,70.0,30.05,SSE,153,9.0,13.0,82,-99.99,,,-99.99,,2013-01-06 23:13:00,
2013-01-06 18:22:00,75.0,70.0,30.05,SSE,153,9.0,13.0,82,-99.99,,,-99.99,,2013-01-06 23:22:00,
2013-01-06 18:33:00,75.0,70.0,30.05,SSE,157,8.0,45.0,84,-99.99,,,-99.99,,2013-01-06 23:33:00,
2013-01-06 18:43:00,74.0,70.0,30.06,SSE,160,6.0,8.0,85,-99.99,,,-99.99,,2013-01-06 23:43:00,
2013-01-06 18:53:00,74.0,70.0,30.06,SSE,165,6.0,9.0,86,-99.99,,,-99.99,,2013-01-06 23:53:00,
2013-01-06 19:03:00,74.0,70.0,30.06,SSE,165,6.0,9.0,86,-99.99,,,-99.99,,2013-01-07 00:03:00,
2013-01-06 19:12:00,74.0,70.0,30.07,SSE,165,5.0,9.0,86,-99.99,,,-99.99,,2013-01-07 00:12:00,
2013-01-06 19:23:00,74.0,70.0,30.07,SSE,165,5.0,9.0,86,-99.99,,,-99.99,,2013-01-07 00:23:00,
2013-01-06 19:33:00,73.0,70.0,30.07,SSE,151,4.0,5.0,88,-99.99,,,-99.99,,2013-01-07 00:33:00,
2013-01-06 19:43:00,73.0,70.0,30.07,SSE,150,4.0,5.0,90,-99.99,,,-99.99,,2013-01-07 00:43:00,
2013-01-06 19:53:00,73.0,70.0,30.08,SE,132,3.0,5.0,91,-99.99,,,-99.99,,2013-01-07 00:53:00,
2013-01-06 20:02:00,73.0,70.0,30.08,SE,132,3.0,5.0,91,-99.99,,,-99.99,,2013-01-07 01:02:00,
2013-01-06 20:12:00,72.0,69.0,30.08,SE,129,2.0,3.0,91,-99.99,,,-99.99,,2013-01-07 01:12:00,
2013-01-06 20:23:00,72.0,69.0,30.08,SE,129,2.0,3.0,91,-99.99,,,-99.99,,2013-01-07 01:23:00,
2013-01-06 20:32:00,71.0,68.0,30.09,SE,134,2.0,3.0,92,-99.99,,,-99.99,,2013-01-07 01:32:00,
2013-01-06 20:43:00,71.0,69.0,30.09,SSE,162,3.0,4.0,94,-99.99,,,-99.99,,2013-01-07 01:43:00,
2013-01-06 20:53:00,70.0,69.0,30.09,South,171,3.0,4.0,95,-99.99,,,-99.99,,2013-01-07 01:53:00,
2013-01-06 21:02:00,70.0,69.0,30.09,South,171,3.0,4.0,95,-99.99,,,-99.99,,2013-01-07 02:02:00,
2013-01-06 21:12:00,70.0,69.0,30.09,South,172,3.0,4.0,95,-99.99,,,-99.99,,2013-01-07 02:12:00,
2013-01-06 21:23:00,70.0,69.0,30.09,South,172,3.0,4.0,95,-99.99,,,-99.99,,2013-01-07 02:23:00,
2013-01-06 21:32:00,70.0,69.0,30.09,South,172,3.0,4.0,95,-99.99,,,-99.99,,2013-01-07 02:32:00,
2013-01-06 21:42:00,70.0,69.0,30.10,SSE,153,3.0,4.0,96,-99.99,,,-99.99,,2013-01-07 02:42:00,
2013-01-06 21:53:00,70.0,69.0,30.10,SSE,161,3.0,5.0,96,-99.99,,,-99.99,,2013-01-07 02:53:00,
2013-01-06 22:02:00,70.0,69.0,30.10,SSE,161,3.0,5.0,96,-99.99,,,-99.99,,2013-01-07 03:02:00,
2013-01-06 22:12:00,70.0,69.0,30.10,SE,146,2.0,3.0,96,-99.99,,,-99.99,,2013-01-07 03:12:00,
2013-01-06 22:23:00,70.0,69.0,30.10,SE,146,2.0,3.0,96,-99.99,,,-99.99,,2013-01-07 03:23:00,
2013-01-06 22:33:00,70.0,69.0,30.10,SE,146,2.0,3.0,96,-99.99,,,-99.99,,2013-01-07 03:33:00,
2013-01-06 22:43:00,69.0,68.0,30.11,SW,232,1.0,2.0,96,-99.99,,,-99.99,,2013-01-07 03:43:00,
2013-01-06 22:53:00,69.0,68.0,30.11,SW,218,1.0,2.0,97,-99.99,,,-99.99,,2013-01-07 03:53:00,
2013-01-06 23:02:00,69.0,68.0,30.11,SW,218,1.0,2.0,97,-99.99,,,-99.99,,2013-01-07 04:02:00,
2013-01-06 23:12:00,69.0,68.0,30.11,WSW,249,2.0,2.0,97,-99.99,,,-99.99,,2013-01-07 04:12:00,
2013-01-06 23:22:00,69.0,68.0,30.11,WSW,249,2.0,2.0,97,-99.99,,,-99.99,,2013-01-07 04:22:00,
2013-01-06 23:32:00,68.0,68.0,30.11,WNW,299,3.0,4.0,97,-99.99,,,-99.99,,2013-01-07 04:32:00,
2013-01-06 23:42:00,68.0,68.0,30.11,WNW,299,3.0,4.0,97,-99.99,,,-99.99,,2013-01-07 04:42:00,
2013-01-06 23:53:00,69.0,69.0,30.11,NW,310,4.0,5.0,98,-99.99,,,-99.99,,2013-01-07 04:53:00,